Location: Clanezzo
(45.7500°N, 9.6000°E)
Time: 16:38:28
(UTC+00:00)

Envisat - Pass Details

Date: 23 January 2022
Orbit: 764 x 765 km, 98.2° (Epoch: 19 May)

Event Time Altitude Azimuth Distance (km) Brightness Sun altitude
Rises 06:07:53 0° 356° (N) 3,241 6.0 -8.0°
Reaches altitude 10° 06:11:31 10° 329° (NNW) 2,310 5.0 -7.4°
Maximum altitude 06:13:40 13° 304° (NW) 2,118 4.7 -7.1°
Drops below altitude 10° 06:15:49 10° 279° (W) 2,304 4.8 -6.7°
Sets 06:19:26 0° 252° (WSW) 3,226 5.8 -6.1°
